Location: Unspecified
(38.0989°N, 0.6729°W)
Time: 11:22:34
(UTC+02:00)

ISS - Visible Passes

Search period start: 31 March 2023 00:00
Search period end: 10 April 2023 00:00
Orbit: 414 x 424 km, 51.6° (Epoch: 31 March)

Date Brightness Start Highest point End Pass type
(mag) Time Alt. Az. Time Alt. Az. Time Alt. Az.
31 Mar -3.4 22:09:29 10° NW 22:12:23 61° NNW 22:12:23 61° NNW visible
01 Apr -3.1 21:22:11 10° NW 21:25:23 42° NE 21:27:06 22° E visible
01 Apr -0.6 22:59:35 10° W 23:00:05 12° W 23:00:05 12° W visible
02 Apr -2.4 22:11:55 10° WNW 22:14:57 32° SW 22:15:07 31° SW visible
03 Apr -3.4 21:24:48 10° WNW 21:28:06 59° SW 21:30:28 17° SSE visible
05 Apr -1.2 21:29:17 10° W 21:31:33 17° SW 21:33:47 10° S visible
